| time (UTC) | temp F | wind direction | speed knots | gust knots | rain 1hr in | rain 24hr in | rain mn in | humidity % | barometer mb |
| 20260504202817 | 68 | 162 | 5.2 | 7.8 | 0.00 | 0.00 | 0.00 | 34 | 1010.2 |
| 20260504201837 | 68 | 147 | 4.3 | 9.6 | 0.00 | 0.00 | 0.00 | 33 | 1010.1 |
| 20260504200816 | 68 | 100 | 7.8 | 12.2 | 0.00 | 0.00 | 0.00 | 33 | 1010.0 |
| 20260504195816 | 69 | 141 | 10.4 | 13.0 | 0.00 | 0.00 | 0.00 | 31 | 1009.7 |
| 20260504194816 | 69 | 120 | 10.4 | 13.9 | 0.00 | 0.00 | 0.00 | 32 | 1009.9 |
| 20260504193837 | 69 | 141 | 6.1 | 12.2 | 0.00 | 0.00 | 0.00 | 32 | 1009.9 |
| 20260504192816 | 69 | 125 | 9.6 | 13.9 | 0.00 | 0.00 | 0.00 | 32 | 1010.7 |
| 20260504191816 | 69 | 99 | 7.8 | 12.2 | 0.00 | 0.00 | 0.00 | 33 | 1010.8 |
| 20260504190816 | 70 | 119 | 7.0 | 13.0 | 0.00 | 0.00 | 0.00 | 32 | 1010.8 |
| 20260504185816 | 69 | 126 | 8.7 | 12.2 | 0.00 | 0.00 | 0.00 | 34 | 1011.1 |
| 20260504184816 | 69 | 122 | 7.0 | 13.0 | 0.00 | 0.00 | 0.00 | 34 | 1011.1 |
| 20260504183837 | 69 | 99 | 6.1 | 8.7 | 0.00 | 0.00 | 0.00 | 34 | 1011.3 |
| 20260504182816 | 69 | 106 | 3.5 | 10.4 | 0.00 | 0.00 | 0.00 | 34 | 1011.0 |
| 20260504181836 | 68 | 88 | 6.1 | 8.7 | 0.00 | 0.00 | 0.00 | 35 | 1011.1 |
| 20260504180836 | 67 | 137 | 5.2 | 8.7 | 0.00 | 0.00 | 0.00 | 36 | 1011.4 |
| 20260504175816 | 67 | 95 | 4.3 | 11.3 | 0.00 | 0.00 | 0.00 | 38 | 1012.2 |
| 20260504174816 | 67 | 88 | 7.8 | 12.2 | 0.00 | 0.00 | 0.00 | 37 | 1012.4 |
| 20260504173816 | 67 | 82 | 5.2 | 12.2 | 0.00 | 0.00 | 0.00 | 38 | 1012.4 |
| 20260504172816 | 66 | 86 | 9.6 | 12.2 | 0.00 | 0.00 | 0.00 | 38 | 1013.0 |
| 20260504171836 | 66 | 98 | 6.1 | 9.6 | 0.00 | 0.00 | 0.00 | 37 | 1013.0 |
| 20260504170837 | 66 | 130 | 7.0 | 10.4 | 0.00 | 0.00 | 0.00 | 38 | 1013.1 |
| 20260504150815 | 62 | 137 | 2.6 | 4.3 | 0.00 | 0.00 | 0.00 | 45 | 1014.0 |
| 20260504140815 | 57 | 327 | 0.9 | 2.6 | 0.00 | 0.00 | 0.00 | 54 | 1013.3 |
| 20260504130816 | 55 | 11 | 1.7 | 3.5 | 0.00 | 0.00 | 0.00 | 59 | 1013.5 |
| 20260504081817 | 58 | 118 | 1.7 | 3.5 | 0.00 | 0.00 | 0.00 | 32 | 1013.3 |
| 20260504080817 | 58 | 269 | 4.3 | 9.6 | 0.00 | 0.00 | 0.00 | 32 | 1013.2 |
| 20260504045815 | 64 | 321 | 5.2 | 8.7 | 0.00 | 0.00 | 0.00 | 25 | 1013.0 |
| 20260504044815 | 63 | 312 | 5.2 | 7.8 | 0.00 | 0.00 | 0.00 | 25 | 1013.0 |
| 20260504043815 | 63 | 311 | 7.0 | 8.7 | 0.00 | 0.00 | 0.00 | 26 | 1013.1 |
| 20260504042816 | 63 | 302 | 6.1 | 8.7 | 0.00 | 0.00 | 0.00 | 27 | 1012.5 |
| 20260504041836 | 63 | 310 | 3.5 | 6.1 | 0.00 | 0.00 | 0.00 | 26 | 1012.5 |
| 20260504040856 | 64 | 349 | 1.7 | 2.6 | 0.00 | 0.00 | 0.00 | 26 | 1012.8 |
| 20260504035815 | 64 | 322 | 5.2 | 7.8 | 0.00 | 0.00 | 0.00 | 25 | 1012.1 |
| 20260504034815 | 64 | 318 | 7.0 | 8.7 | 0.00 | 0.00 | 0.00 | 25 | 1012.1 |
| 20260504033815 | 65 | 0.0 | 0.0 | 0.00 | 0.00 | 0.00 | 24 | 1012.4 | |
| 20260504032835 | 66 | 172 | 0.0 | 0.9 | 0.00 | 0.00 | 0.00 | 24 | 1012.5 |
| 20260504031815 | 68 | 159 | 2.6 | 5.2 | 0.00 | 0.00 | 0.00 | 22 | 1012.6 |
| 20260504030815 | 68 | 15 | 3.5 | 7.0 | 0.00 | 0.00 | 0.00 | 21 | 1012.5 |
| 20260504025815 | 68 | 354 | 8.7 | 19.1 | 0.00 | 0.00 | 0.00 | 19 | 1011.8 |
| 20260504024815 | 68 | 357 | 3.5 | 5.2 | 0.00 | 0.00 | 0.00 | 21 | 1012.1 |
| 20260504023815 | 68 | 4 | 2.6 | 6.1 | 0.00 | 0.00 | 0.00 | 21 | 1011.9 |
| 20260504022815 | 68 | 346 | 2.6 | 4.3 | 0.00 | 0.00 | 0.00 | 21 | 1011.6 |
| 20260504021815 | 68 | 359 | 6.1 | 9.6 | 0.00 | 0.00 | 0.00 | 20 | 1011.6 |
| 20260504020815 | 69 | 12 | 1.7 | 3.5 | 0.00 | 0.00 | 0.00 | 20 | 1011.6 |
| 20260504015815 | 69 | 2 | 3.5 | 5.2 | 0.00 | 0.00 | 0.00 | 19 | 1012.2 |
| 20260504014815 | 70 | 41 | 1.7 | 6.1 | 0.00 | 0.00 | 0.00 | 19 | 1012.5 |
| 20260504013815 | 70 | 10 | 0.9 | 2.6 | 0.00 | 0.00 | 0.00 | 18 | 1012.7 |
| 20260504012815 | 70 | 6 | 5.2 | 7.8 | 0.00 | 0.00 | 0.00 | 18 | 1011.9 |
| 20260504011815 | 71 | 38 | 6.1 | 8.7 | 0.00 | 0.00 | 0.00 | 19 | 1012.0 |
| 20260504010815 | 71 | 353 | 5.2 | 9.6 | 0.00 | 0.00 | 0.00 | 17 | 1012.1 |
| 20260504005815 | 71 | 344 | 1.7 | 4.3 | 0.00 | 0.00 | 0.00 | 17 | 1012.3 |
| 20260504004815 | 71 | 271 | 1.7 | 3.5 | 0.00 | 0.00 | 0.00 | 18 | 1012.4 |
| 20260504003815 | 71 | 154 | 0.9 | 1.7 | 0.00 | 0.00 | 0.00 | 16 | 1012.5 |
| 20260504002815 | 71 | 234 | 5.2 | 11.3 | 0.00 | 0.00 | 0.00 | 17 | 1013.1 |
| 20260504001815 | 71 | 208 | 10.4 | 15.6 | 0.00 | 0.00 | 0.00 | 17 | 1013.3 |
| 20260504000815 | 72 | 152 | 0.9 | 3.5 | 0.00 | 0.00 | 0.00 | 15 | 1013.4 |
| 20260503235815 | 72 | 164 | 3.5 | 5.2 | 0.00 | 0.00 | 0.00 | 16 | 1013.0 |
| 20260503234835 | 73 | 147 | 2.6 | 4.3 | 0.00 | 0.00 | 0.00 | 15 | 1013.3 |
| 20260503233815 | 73 | 166 | 2.6 | 5.2 | 0.00 | 0.00 | 0.00 | 15 | 1013.3 |
| 20260503232815 | 73 | 143 | 2.6 | 7.0 | 0.00 | 0.00 | 0.00 | 16 | 1013.2 |
| 20260503231815 | 73 | 90 | 2.6 | 7.8 | 0.00 | 0.00 | 0.00 | 15 | 1013.2 |
| 20260503230835 | 73 | 111 | 3.5 | 7.8 | 0.00 | 0.00 | 0.00 | 15 | 1013.3 |
| 20260503225817 | 73 | 72 | 2.6 | 5.2 | 0.00 | 0.00 | 0.00 | 15 | 1013.4 |
| 20260503224817 | 73 | 126 | 4.3 | 7.8 | 0.00 | 0.00 | 0.00 | 15 | 1013.4 |
| 20260503223817 | 73 | 94 | 6.1 | 10.4 | 0.00 | 0.00 | 0.00 | 15 | 1013.6 |
| 20260503222817 | 72 | 94 | 6.1 | 9.6 | 0.00 | 0.00 | 0.00 | 15 | 1013.7 |
| 20260503221817 | 72 | 93 | 3.5 | 7.0 | 0.00 | 0.00 | 0.00 | 16 | 1013.9 |
| 20260503220817 | 72 | 110 | 4.3 | 7.8 | 0.00 | 0.00 | 0.00 | 15 | 1014.0 |
| 20260503215817 | 72 | 95 | 6.1 | 10.4 | 0.00 | 0.00 | 0.00 | 13 | 1014.6 |
| 20260503214817 | 72 | 103 | 4.3 | 9.6 | 0.00 | 0.00 | 0.00 | 15 | 1014.8 |
| 20260503213816 | 71 | 79 | 7.0 | 9.6 | 0.00 | 0.00 | 0.00 | 14 | 1015.0 |
| 20260503212917 | 72 | 86 | 5.2 | 9.6 | 0.00 | 0.00 | 0.00 | 16 | 1015.3 |
| 20260503211817 | 71 | 111 | 7.0 | 10.4 | 0.00 | 0.00 | 0.00 | 16 | 1015.5 |
| 20260503210817 | 71 | 88 | 7.0 | 9.6 | 0.00 | 0.00 | 0.00 | 18 | 1015.8 |
| 20260503205817 | 71 | 100 | 7.0 | 9.6 | 0.00 | 0.00 | 0.00 | 17 | 1016.4 |
| 20260503204817 | 71 | 115 | 4.3 | 8.7 | 0.00 | 0.00 | 0.00 | 18 | 1016.6 |
| 20260503203817 | 70 | 97 | 4.3 | 9.6 | 0.00 | 0.00 | 0.00 | 17 | 1016.5 |